Regional Weather Roundup
Issued by NWS

Home | Current Version | Previous Version | Graphics & Text | Print | Product List | Glossary On
Versions: 1 2 3 4 5 6 7 8 9 10 11 12 13 14 15 16 17 18 19 20 21 22 23 24 25 26 27 28 29 30 31 32 33 34 35 36 37 38 39 40 41 42 43 44 45 46 47 48 49 50
000
ASUS45 KBOU 281407
RWRCO

WEATHER ROUNDUP FOR COLORADO
NATIONAL WEATHER SERVICE DENVER/BOULDER CO
800 AM MDT FRI AUG 28 2015

NOTE: "FAIR" INDICATES FEW OR NO CLOUDS BELOW 12000 FEET WITH NO
SIGNIFICANT WEATHER AND/OR OBSTRUCTIONS TO VISIBILITY.

COZ001>005-013-030-031-281500-
...NORTHWEST COLORADO...

CITY           SKY/WX    TMP DP  RH WIND       PRES   REMARKS
CRAIG          SUNNY     50  47  89 CALM      30.38R
HAYDEN         NOT AVBL
MEEKER         SUNNY     51  46  83 E5        30.39R
MOUNT WERNER   NOT AVBL
STEAMBOAT SPGS   N/A     44  43  98 CALM      30.41R VSB 1/4
WALDEN         MOSUNNY   45  43  93 E3        30.46R
$$

COZ006>008-011-281500-
...WEST CENTRAL VALLEYS...

CITY           SKY/WX    TMP DP  RH WIND       PRES   REMARKS
GRAND JUNCTION SUNNY     60  54  80 S3        30.28R
MONTROSE       SUNNY     56  50  80 SE7       30.35R
EAGLE          SUNNY     52  46  82 CALM      30.45R
RIFLE          SUNNY     54  49  83 SE3       30.36R
DELTA          SUNNY     60  51  74 E8        30.33R
NUCLA          SUNNY     61  45  55 CALM      30.35R
$$

COZ017>023-064>068-281500-
...SOUTHWEST COLORADO...

CITY           SKY/WX    TMP DP  RH WIND       PRES   REMARKS
DURANGO        SUNNY     56  49  77 CALM      30.32R
CORTEZ         SUNNY     57  49  74 NE3       30.29R
PAGOSA SPRINGS SUNNY     55  46  72 CALM      30.39R
TELLURIDE      MOSUNNY   48  43  81 SE3       30.52R
WOLF CREEK PAS MOSUNNY   45  34  65 NE18      30.67S
$$

COZ009-010-012-014-032>034-037-058>063-281500-
...CENTRAL COLORADO...

CITY           SKY/WX    TMP DP  RH WIND       PRES   REMARKS
ASPEN          SUNNY     49  44  83 CALM      30.46R
BUENA VISTA    SUNNY     53  40  61 CALM      30.43R
COPPER MTN     CLOUDY    45  37  76 W13G18    30.69R
BERTHOUD PASS  HAZE      34  23  64 NW25G35   30.68R VSB<1/4 WCI  21
COTTONWOOD PAS NOT AVBL
GUNNISON       SUNNY     46  43  87 CALM      30.49R
KREMMLING      CLOUDY    46  45  93 E3        30.47R
LEADVILLE      SUNNY     44  41  89 NE3       30.55R
MONARCH PASS   SUNNY     41  32  70 W9        30.76R
SALIDA         SUNNY     54  45  70 CALM      30.48R
SUNLIGHT       SUNNY     50  37  62 N7        30.65R
WILKERSON PASS SUNNY     46  32  57 NW7       30.63R
$$

COZ069>075-281500-
...SAN LUIS VALLEY/SANGRE DE CRISTO MOUNTAINS...

CITY           SKY/WX    TMP DP  RH WIND       PRES   REMARKS
ALAMOSA        SUNNY     51  48  89 S5        30.38R
LA VETA PASS   SUNNY     50  43  76 W3        30.53R
SAGUACHE       SUNNY     54  43  66 NW13      30.41R
$$

COZ035-036-038>040-281500-
...NORTHERN COLORADO FRONT RANGE...

CITY           SKY/WX    TMP DP  RH WIND       PRES   REMARKS
DENVER INTL AP MOSUNNY   65  55  70 SW3       30.24R
DMNS CITY PARK   N/A     64  51  64 SE6       30.24R
AURORA         MOSUNNY   62  55  76 SW6       30.26R
FRONT RANGE AP MOSUNNY   63  55  77 SW6       30.25R
ERIE MUNI ARPT MOSUNNY   62  54  75 CALM      30.22R
BOULDER MUN AP SUNNY     63  50  63 CALM      30.22R
CENTENNIAL     MOSUNNY   63  52  67 SW6       30.26R
BROOMFIELD     MOSUNNY   66  50  55 SW3       30.25R
FORT COLLINS   MOSUNNY   63  52  67 S3        30.22R
LONGMONT       MOSUNNY   64  54  68 S3        30.23R
$$

COZ041-046-047-076>085-087-088-281500-
...PIKES PEAK/PALMER DIVIDE AND SOUTHERN FOOTHILLS...

CITY           SKY/WX    TMP DP  RH WIND       PRES   REMARKS
COLO. SPRINGS  MOSUNNY   66  50  56 N15       30.27R
A. F. ACADEMY  SUNNY     58  52  78 N7        30.30R
ELLICOTT       SUNNY    N/A N/A N/A N10       30.26R
FALCON         SUNNY     62  52  71 MISG      30.32R
FORT CARSON    SUNNY     63  53  69 N8        30.25R
LIMON          SUNNY     64  55  72 NW10      30.22R
MONUMENT HILL  SUNNY     57  52  82 W3        30.34R
TRINIDAD       SUNNY     63  54  72 W8        30.24R
$$

COZ042>045-048>051-090-091-281500-
...NORTHEAST COLORADO...

CITY           SKY/WX    TMP DP  RH WIND       PRES   REMARKS
GREELEY ARPT   PTSUNNY   64  50  59 W5        30.20R
AKRON          SUNNY     65  57  75 W12       30.16R
BURLINGTON     MOSUNNY   67  55  65 NW9       30.13R
WRAY           SUNNY     66  59  78 W5        30.08R
STERLING       MOSUNNY   63  55  77 S5        30.11R
HOLYOKE        SUNNY     70  54  56 NW10G18   30.07R
FORT MORGAN    MOSUNNY   65  50  58 NW10G18   30.16R
$$

COZ086-089-092>099-281500-
...SOUTHEAST COLORADO...

CITY           SKY/WX    TMP DP  RH WIND       PRES   REMARKS
PUEBLO         SUNNY     66  57  72 NW7       30.18R
LA JUNTA       SUNNY     66  59  78 W9        30.15R
LAMAR          MOSUNNY   69  61  75 W9        30.09R
SPRINGFIELD      N/A     71  58  63 NW12      30.14R
$$




USA.gov is the U.S. government's official web portal to all federal, state and local government web resources and services.